When you browse on this site, cookies collect data to enhance your experience and personalize the content and advertising you see.
Visit our Privacy Policy to learn more. By continuing to use the site, you agree to this use of cookies and data.
  • In Latvia
  • List of Countries
  • For 7 days
  • Water Temperature
  • Satellite Maps
  • Weather Map
  • Weather Widgets
  • user-avatar
    Login

    Hourly Weather Valka

    Today, 21 April, Sunday

    Time Temperature Precipitation Wind Pressure Humidity
    00:00 +4°C° 0 mm 2 mps 763 mmHg 66%
    01:00 +3°C° 0 mm 2 mps 763 mmHg 71%
    02:00 +3°C° 0 mm 2 mps 763 mmHg 79%
    03:00 +2°C° 0 mm 2 mps 763 mmHg 82%
    04:00 +2°C° 0 mm 2 mps 762 mmHg 85%
    05:00 +2°C° 0 mm 2 mps 762 mmHg 88%
    06:00 +3°C° 0 mm 3 mps 763 mmHg 80%
    07:00 +4°C° 0 mm 3 mps 763 mmHg 72%
    08:00 +6°C° 0 mm 4 mps 763 mmHg 64%
    09:00 +7°C° 0 mm 4 mps 763 mmHg 58%
    10:00 +10°C° 0 mm 4 mps 763 mmHg 52%
    11:00 +12°C° 0 mm 4 mps 763 mmHg 47%
    12:00 +13°C° 0 mm 4 mps 763 mmHg 44%
    13:00 +14°C° 0 mm 4 mps 763 mmHg 41%
    14:00 +15°C° 0 mm 4 mps 762 mmHg 38%
    15:00 +15°C° 0 mm 4 mps 762 mmHg 37%
    16:00 +16°C° 0 mm 3 mps 762 mmHg 37%
    17:00 +14°C° 0 mm 3 mps 762 mmHg 36%
    18:00 +13°C° 0 mm 3 mps 762 mmHg 42%
    19:00 +12°C° 0 mm 2 mps 762 mmHg 49%
    20:00 +9°C° 0 mm 2 mps 763 mmHg 56%
    21:00 +8°C° 0 mm 2 mps 763 mmHg 58%
    22:00 +7°C° 0 mm 2 mps 763 mmHg 61%
    23:00 +7°C° 0 mm 2 mps 763 mmHg 63%

    Tomorrow, 22 April, Monday

    Time Temperature Precipitation Wind Pressure Humidity
    00:00 +7°C° 0 mm 2 mps 764 mmHg 66%
    01:00 +6°C° 0 mm 2 mps 764 mmHg 69%
    02:00 +6°C° 0 mm 2 mps 764 mmHg 71%
    03:00 +6°C° 0 mm 2 mps 764 mmHg 75%
    04:00 +5°C° 0 mm 2 mps 764 mmHg 78%
    05:00 +5°C° 0 mm 2 mps 764 mmHg 82%
    06:00 +7°C° 0 mm 2 mps 765 mmHg 74%
    07:00 +9°C° 0 mm 2 mps 765 mmHg 65%
    08:00 +12°C° 0 mm 2 mps 765 mmHg 57%
    09:00 +14°C° 0 mm 2 mps 765 mmHg 49%
    10:00 +16°C° 0 mm 3 mps 765 mmHg 42%
    11:00 +17°C° 0 mm 3 mps 765 mmHg 35%
    12:00 +18°C° 0 mm 3 mps 765 mmHg 34%
    13:00 +18°C° 0 mm 3 mps 765 mmHg 33%
    14:00 +19°C° 0 mm 3 mps 765 mmHg 32%
    15:00 +19°C° 0 mm 3 mps 765 mmHg 33%
    16:00 +19°C° 0 mm 3 mps 765 mmHg 33%
    17:00 +18°C° 0 mm 3 mps 765 mmHg 34%
    18:00 +16°C° 0 mm 2 mps 765 mmHg 41%
    19:00 +14°C° 0 mm 2 mps 765 mmHg 47%
    20:00 +12°C° 0 mm 2 mps 765 mmHg 54%
    21:00 +12°C° 0 mm 2 mps 765 mmHg 57%
    22:00 +10°C° 0 mm 2 mps 766 mmHg 59%
    23:00 +9°C° 0 mm 2 mps 766 mmHg 62%

    Day after tomorrow, 23 April, Tuesday

    Time Temperature Precipitation Wind Pressure Humidity
    00:00 +8°C° 0 mm 2 mps 766 mmHg 63%
    01:00 +8°C° 0 mm 2 mps 766 mmHg 64%
    02:00 +9°C° 0 mm 1 mps 766 mmHg 65%
    03:00 +8°C° 0 mm 1 mps 767 mmHg 66%
    04:00 +8°C° 0 mm 1 mps 767 mmHg 67%
    05:00 +7°C° 0 mm 1 mps 767 mmHg 68%
    06:00 +9°C° 0 mm 1 mps 767 mmHg 62%
    07:00 +11°C° 0 mm 1 mps 767 mmHg 57%
    08:00 +13°C° 0 mm 1 mps 767 mmHg 51%
    09:00 +15°C° 0 mm 1 mps 767 mmHg 45%
    10:00 +17°C° 0 mm 2 mps 767 mmHg 39%
    11:00 +18°C° 0 mm 2 mps 767 mmHg 33%
    12:00 +19°C° 0 mm 2 mps 767 mmHg 31%
    13:00 +19°C° 0 mm 2 mps 767 mmHg 30%
    14:00 +20°C° 0 mm 2 mps 767 mmHg 29%
    15:00 +20°C° 0 mm 2 mps 766 mmHg 30%
    16:00 +19°C° 0 mm 2 mps 766 mmHg 32%
    17:00 +19°C° 0 mm 2 mps 766 mmHg 33%
    18:00 +17°C° 0 mm 2 mps 766 mmHg 39%
    19:00 +15°C° 0 mm 2 mps 766 mmHg 46%
    20:00 +13°C° 0 mm 2 mps 766 mmHg 52%
    21:00 +12°C° 0 mm 2 mps 766 mmHg 54%
    22:00 +12°C° 0 mm 2 mps 766 mmHg 56%
    23:00 +10°C° 0 mm 2 mps 766 mmHg 58%

    24 April, Wednesday

    Time Temperature Precipitation Wind Pressure Humidity
    00:00 +10°C° 0 mm 1 mps 766 mmHg 59%
    01:00 +10°C° 0 mm 1 mps 766 mmHg 61%
    02:00 +9°C° 0 mm 1 mps 766 mmHg 62%
    03:00 +9°C° 0 mm 1 mps 766 mmHg 64%
    04:00 +8°C° 0 mm 2 mps 766 mmHg 65%
    05:00 +7°C° 0 mm 2 mps 766 mmHg 67%
    06:00 +9°C° 0 mm 2 mps 766 mmHg 62%
    07:00 +12°C° 0 mm 2 mps 766 mmHg 57%
    08:00 +14°C° 0 mm 2 mps 766 mmHg 52%
    09:00 +14°C° 0 mm 3 mps 766 mmHg 46%
    10:00 +17°C° 0 mm 4 mps 766 mmHg 41%
    11:00 +19°C° 0 mm 4 mps 765 mmHg 35%
    12:00 +19°C° 0 mm 4 mps 765 mmHg 34%
    13:00 +20°C° 0 mm 4 mps 765 mmHg 34%
    14:00 +20°C° 0 mm 5 mps 764 mmHg 33%
    15:00 +20°C° 0 mm 4 mps 764 mmHg 35%
    16:00 +20°C° 0 mm 4 mps 763 mmHg 36%
    17:00 +19°C° 0 mm 4 mps 763 mmHg 37%
    18:00 +18°C° 0 mm 4 mps 763 mmHg 44%
    19:00 +16°C° 0 mm 3 mps 763 mmHg 50%
    20:00 +14°C° 0 mm 2 mps 763 mmHg 57%
    21:00 +13°C° 0 mm 2 mps 763 mmHg 60%
    22:00 +13°C° 0 mm 2 mps 763 mmHg 63%
    23:00 +12°C° 0 mm 2 mps 763 mmHg 66%

    25 April, Thursday

    Time Temperature Precipitation Wind Pressure Humidity
    00:00 +10°C° 0 mm 2 mps 763 mmHg 67%
    01:00 +10°C° 0 mm 3 mps 763 mmHg 68%
    02:00 +10°C° 0 mm 3 mps 763 mmHg 69%
    03:00 +10°C° 0 mm 3 mps 763 mmHg 69%
    04:00 +9°C° 0 mm 3 mps 762 mmHg 70%
    05:00 +9°C° 0 mm 3 mps 762 mmHg 70%
    06:00 +11°C° 0 mm 3 mps 762 mmHg 65%
    07:00 +12°C° 0 mm 4 mps 762 mmHg 60%
    08:00 +14°C° 0 mm 4 mps 762 mmHg 55%
    09:00 +15°C° 0 mm 4 mps 761 mmHg 51%
    10:00 +18°C° 0 mm 4 mps 761 mmHg 48%
    11:00 +19°C° 0 mm 4 mps 761 mmHg 44%
    12:00 +20°C° 0 mm 4 mps 761 mmHg 43%
    13:00 +21°C° 0 mm 4 mps 760 mmHg 42%
    14:00 +22°C° 0 mm 4 mps 760 mmHg 41%
    15:00 +22°C° 0 mm 4 mps 759 mmHg 42%
    16:00 +22°C° 0 mm 4 mps 759 mmHg 44%
    17:00 +22°C° 0 mm 3 mps 759 mmHg 45%
    18:00 +20°C° 0 mm 3 mps 759 mmHg 53%
    19:00 +18°C° 0 mm 3 mps 758 mmHg 60%
    20:00 +16°C° 0 mm 2 mps 758 mmHg 67%
    21:00 +16°C° 0 mm 2 mps 758 mmHg 70%
    22:00 +15°C° 0 mm 2 mps 758 mmHg 73%
    23:00 +14°C° 0 mm 2 mps 758 mmHg 76%

    26 April, Friday

    Time Temperature Precipitation Wind Pressure Humidity
    00:00 +13°C° 0 mm 2 mps 758 mmHg 78%
    01:00 +13°C° 0 mm 2 mps 758 mmHg 80%
    02:00 +12°C° 0 mm 2 mps 757 mmHg 82%
    03:00 +12°C° 0 mm 2 mps 757 mmHg 84%
    04:00 +12°C° 0 mm 2 mps 757 mmHg 85%
    05:00 +10°C° 0 mm 2 mps 757 mmHg 87%
    06:00 +13°C° 0 mm 2 mps 756 mmHg 80%
    07:00 +15°C° 0 mm 2 mps 756 mmHg 73%
    08:00 +17°C° 0 mm 2 mps 756 mmHg 66%
    09:00 +18°C° 0 mm 2 mps 756 mmHg 60%
    10:00 +20°C° 0 mm 2 mps 756 mmHg 54%
    11:00 +23°C° 0 mm 2 mps 755 mmHg 49%
    12:00 +24°C° 0 mm 2 mps 755 mmHg 48%
    13:00 +24°C° 0 mm 2 mps 755 mmHg 46%
    14:00 +25°C° 0 mm 2 mps 754 mmHg 45%
    15:00 +25°C° 0 mm 2 mps 754 mmHg 47%
    16:00 +25°C° 0 mm 2 mps 754 mmHg 48%
    17:00 +25°C° 0 mm 2 mps 753 mmHg 49%
    18:00 +23°C° 0.2 mm 1 mps 753 mmHg 58%
    19:00 +21°C° 0.2 mm 1 mps 753 mmHg 67%
    20:00 +19°C° 0.2 mm 1 mps 753 mmHg 75%
    21:00 +18°C° 0.1 mm 1 mps 753 mmHg 79%
    22:00 +16°C° 0.1 mm 1 mps 753 mmHg 83%
    23:00 +15°C° 0.1 mm 1 mps 753 mmHg 88%
    Show more